Location: Andrest
(43.3200°N, 0.0641°E)
Time: 21:03:43
(UTC+00:00)

Cosmos 2285 Rocket - Pass Details

Date: 01 December 2020
Orbit: 971 x 998 km, 74.0° (Epoch: 21 January)

Event Time Altitude Azimuth Distance (km) Brightness Sun altitude
Rises 17:26:06 0° 338° (NNW) 3,714 7.1 -10.9°
Reaches altitude 10° 17:28:40 10° 338° (NNW) 2,757 6.4 -11.3°
Maximum altitude 17:35:03 81° 252° (WSW) 1,000 4.2 -12.4°
Drops below altitude 10° 17:41:22 10° 166° (SSE) 2,721 6.4 -13.5°
Sets 17:43:53 0° 165° (SSE) 3,661 7.0 -14.0°
